Date String (YYYY-MM-DD hh:mm:ss) UTC,Instrument flags,absolute air pressure of the measurement (hPa),sample flow rate (lpm),inlet stack bypass flow (lpm),air temperature of the measurement (°C),ambient temperature measured by the external sensor (°C),aerosol sample conditioner tube jacket temperature (°C),OPC LED temperature (°C),internal box temperature (°C),relative humidity of the measurement (%),span deviation,mass concentration of particles derived from Lorenz-Mie calculation of OPC scattering (μg/m³),mass concentration of particles derived from Lorenz-Mie calculation of OPC scattering (μg/m³),mass concentration of particles derived from Lorenz-Mie calculation of OPC scattering (μg/m³)
DateTimeUTC,F1_M11,P_M11,Q1_M11,Q2_M11,T1_M11,T2_M11,T3_M11,T4_M11,T5_M11,U1_M11,ZSPAN_M11,X2_M11,X0_M11,X1_M11
2024-02-03 01:00:00,SystemResetWarning,0814.3,5.00,000.00,025.7,025.0,000.0,034.1,027.6,11.6,0003.0,0008.83,0026.39,0007.40
2024-02-03 01:01:00,SystemResetWarning,0814.3,5.00,000.00,025.7,025.0,000.0,034.2,027.6,11.8,0002.8,0008.80,0025.25,0007.39
2024-02-03 01:02:00,SystemResetWarning,0814.3,5.00,000.00,025.7,025.0,000.0,034.1,027.5,12.2,0003.1,0008.72,0024.05,0007.37
2024-02-03 01:03:00,SystemResetWarning,0814.3,5.01,000.00,025.7,025.0,000.0,034.2,027.6,12.1,0003.3,0008.71,0024.77,0007.36
2024-02-03 01:04:00,SystemResetWarning,0814.4,5.00,000.00,025.7,025.0,000.0,034.1,027.5,12.2,0003.2,0008.70,0025.13,0007.32
2024-02-03 01:05:00,SystemResetWarning,0814.4,4.99,000.00,025.7,024.9,000.0,034.2,027.5,12.3,0002.9,0008.61,0023.67,0007.29
2024-02-03 01:06:00,SystemResetWarning,0814.4,4.98,000.00,025.7,024.9,000.0,034.2,027.5,12.2,0003.1,0008.58,0022.60,0007.26
2024-02-03 01:07:00,SystemResetWarning,0814.4,5.01,000.00,025.7,024.9,000.0,034.2,027.5,12.3,0003.3,0008.61,0022.05,0007.27
2024-02-03 01:08:00,SystemResetWarning,0814.4,5.01,000.00,025.7,024.9,000.0,034.2,027.5,12.1,0003.3,0008.71,0024.21,0007.29
2024-02-03 01:09:00,SystemResetWarning,0814.4,5.00,000.00,025.7,024.9,000.0,034.2,027.5,12.1,0003.4,0008.84,0026.34,0007.33
2024-02-03 01:10:00,SystemResetWarning,0814.4,4.99,000.00,025.7,024.9,000.0,034.1,027.5,12.2,0003.4,0008.89,0026.21,0007.35
2024-02-03 01:11:00,SystemResetWarning,0814.5,4.99,000.00,025.7,024.9,000.0,034.1,027.4,12.3,0003.4,0008.93,0025.83,0007.34
2024-02-03 01:12:00,SystemResetWarning,0814.5,5.00,000.00,025.7,024.8,000.0,034.1,027.4,12.4,0003.5,0008.94,0026.29,0007.33
2024-02-03 01:13:00,SystemResetWarning,0814.5,5.01,000.00,025.6,024.8,000.0,034.1,027.4,12.4,0003.4,0009.02,0027.68,0007.34
2024-02-03 01:14:00,SystemResetWarning,0814.5,5.01,000.00,025.6,024.8,000.0,034.1,027.4,12.4,0003.6,0009.09,0028.72,0007.35
2024-02-03 01:15:00,SystemResetWarning,0814.6,5.00,000.00,025.6,024.8,000.0,034.1,027.4,12.4,0003.7,0009.15,0028.95,0007.38
2024-02-03 01:16:00,SystemResetWarning,0814.5,5.00,000.00,025.6,024.8,000.0,034.1,027.4,12.4,0003.8,0009.19,0031.34,0007.40
2024-02-03 01:17:00,SystemResetWarning,0814.6,5.00,000.00,025.6,024.8,000.0,034.1,027.4,12.4,0003.7,0009.18,0032.82,0007.41
2024-02-03 01:18:00,SystemResetWarning,0814.6,4.99,000.00,025.6,024.8,000.0,034.1,027.4,12.4,0003.9,0009.11,0033.20,0007.39
2024-02-03 01:19:00,SystemResetWarning,0814.5,4.99,000.00,025.6,024.8,000.0,034.1,027.4,12.4,0004.4,0009.01,0031.67,0007.38
2024-02-03 01:20:00,SystemResetWarning,0814.5,5.00,000.00,025.6,024.7,000.0,034.1,027.3,12.4,0004.3,0009.04,0028.98,0007.46
2024-02-03 01:21:00,SystemResetWarning,0814.4,5.01,000.00,025.5,024.7,000.0,034.1,027.3,12.4,0004.5,0009.15,0028.73,0007.58
2024-02-03 01:22:00,SystemResetWarning,0814.4,5.00,000.00,025.5,024.7,000.0,034.0,027.3,12.4,0004.5,0009.22,0029.09,0007.73
2024-02-03 01:23:00,SystemResetWarning,0814.4,5.00,000.00,025.5,024.7,000.0,034.0,027.3,12.4,0004.4,0009.36,0029.49,0007.93
2024-02-03 01:24:00,SystemResetWarning,0814.3,5.00,000.00,025.5,024.6,000.0,034.0,027.3,12.4,0004.4,0009.46,0028.35,0008.09
2024-02-03 01:25:00,SystemResetWarning,0814.3,4.99,000.00,025.5,024.6,000.0,034.0,027.2,12.4,0004.5,0009.62,0027.22,0008.26
2024-02-03 01:26:00,SystemResetWarning,0814.3,5.00,000.00,025.5,024.6,000.0,034.0,027.2,12.5,0004.9,0009.82,0026.06,0008.51
2024-02-03 01:27:00,SystemResetWarning,0814.3,5.00,000.00,025.5,024.6,000.0,034.0,027.2,12.4,0005.0,0010.02,0024.23,0008.71
2024-02-03 01:28:00,SystemResetWarning,0814.3,4.99,000.00,025.5,024.6,000.0,034.0,027.2,12.5,0005.0,0010.20,0022.83,0008.88
2024-02-03 01:29:00,SystemResetWarning,0814.3,5.00,000.00,025.5,024.6,000.0,034.0,027.2,12.5,0004.9,0010.44,0021.56,0009.12
2024-02-03 01:30:00,SystemResetWarning,0814.3,5.00,000.00,025.4,024.6,000.0,034.0,027.2,12.6,0004.6,0010.56,0020.51,0009.28
2024-02-03 01:31:00,SystemResetWarning,0814.3,5.00,000.00,025.4,024.6,000.0,034.0,027.2,12.7,0004.4,0010.58,0020.98,0009.30
2024-02-03 01:32:00,SystemResetWarning,0814.3,5.00,000.00,025.4,024.6,000.0,033.9,027.2,12.8,0004.2,0010.43,0020.64,0009.21
2024-02-03 01:33:00,SystemResetWarning,0814.3,5.00,000.00,025.4,024.5,000.0,033.9,027.2,12.7,0003.9,0010.36,0020.22,0009.12
2024-02-03 01:34:00,SystemResetWarning,0814.3,5.00,000.00,025.4,024.5,000.0,033.9,027.2,12.8,0003.8,0010.18,0019.83,0009.00
2024-02-03 01:35:00,SystemResetWarning,0814.3,5.00,000.00,025.4,024.6,000.0,033.9,027.2,12.9,0003.7,0010.10,0019.12,0008.85
2024-02-03 01:36:00,SystemResetWarning,0814.3,5.00,000.00,025.4,024.6,000.0,033.9,027.2,12.9,0003.6,0009.97,0018.94,0008.70
2024-02-03 01:37:00,SystemResetWarning,0814.3,4.99,000.00,025.4,024.6,000.0,033.9,027.2,12.9,0003.1,0009.74,0018.43,0008.44
2024-02-03 01:38:00,SystemResetWarning,0814.3,4.99,000.00,025.4,024.6,000.0,033.9,027.2,12.9,0003.0,0009.51,0018.82,0008.23
2024-02-03 01:39:00,SystemResetWarning,0814.3,5.00,000.00,025.4,024.6,000.0,033.9,027.2,12.9,0002.8,0009.31,0020.42,0008.07
2024-02-03 01:40:00,SystemResetWarning,0814.4,5.01,000.00,025.4,024.6,000.0,033.9,027.2,13.0,0002.4,0009.06,0020.96,0007.84
2024-02-03 01:41:00,SystemResetWarning,0814.3,5.01,000.00,025.4,024.6,000.0,033.9,027.1,13.0,0002.2,0008.90,0022.94,0007.67
2024-02-03 01:42:00,SystemResetWarning,0814.3,5.01,000.00,025.4,024.6,000.0,033.8,027.1,12.9,0002.0,0008.79,0023.26,0007.55
2024-02-03 01:43:00,SystemResetWarning,0814.2,4.99,000.00,025.4,024.6,000.0,033.8,027.1,13.1,0002.0,0008.79,0023.75,0007.50
2024-02-03 01:44:00,SystemResetWarning,0814.2,4.99,000.00,025.4,024.6,000.0,033.8,027.1,13.2,0001.8,0008.78,0023.98,0007.47
2024-02-03 01:45:00,SystemResetWarning,0814.2,4.99,000.00,025.4,024.6,000.0,033.8,027.1,13.2,0001.8,0008.80,0024.59,0007.44
2024-02-03 01:46:00,SystemResetWarning,0814.3,5.00,000.00,025.4,024.6,000.0,033.8,027.1,13.4,0001.7,0008.79,0024.67,0007.42
2024-02-03 01:47:00,SystemResetWarning,0814.3,5.01,000.00,025.4,024.6,000.0,033.8,027.1,13.4,0001.7,0008.77,0025.16,0007.40
2024-02-03 01:48:00,SystemResetWarning,0814.3,5.01,000.00,025.4,024.6,000.0,033.8,027.1,13.3,0001.7,0008.74,0025.73,0007.41
2024-02-03 01:49:00,SystemResetWarning,0814.3,5.00,000.00,025.4,024.5,000.0,033.8,027.1,13.4,0001.3,0008.72,0025.13,0007.41
2024-02-03 01:50:00,SystemResetWarning,0814.3,4.99,000.00,025.3,024.5,000.0,033.8,027.1,13.5,0001.6,0008.73,0024.42,0007.40
2024-02-03 01:51:00,SystemResetWarning,0814.3,4.99,000.00,025.3,024.5,000.0,033.8,027.1,13.4,0001.9,0008.73,0026.15,0007.37
2024-02-03 01:52:00,SystemResetWarning,0814.3,5.01,000.00,025.3,024.5,000.0,033.8,027.1,13.5,0002.4,0008.75,0025.78,0007.36
2024-02-03 01:53:00,SystemResetWarning,0814.4,5.00,000.00,025.3,024.5,000.0,033.8,027.1,13.4,0002.4,0008.79,0025.82,0007.37
2024-02-03 01:54:00,SystemResetWarning,0814.4,5.00,000.00,025.3,024.5,000.0,033.8,027.1,13.3,0002.4,0008.76,0025.00,0007.36
2024-02-03 01:55:00,SystemResetWarning,0814.4,5.01,000.00,025.3,024.5,000.0,033.8,027.1,13.4,0002.6,0008.72,0025.30,0007.35
2024-02-03 01:56:00,SystemResetWarning,0814.3,5.00,000.00,025.3,024.5,000.0,033.7,027.1,13.3,0002.8,0008.71,0024.98,0007.34
2024-02-03 01:57:00,SystemResetWarning,0814.3,4.99,000.00,025.3,024.5,000.0,033.7,027.1,13.2,0002.5,0008.59,0024.71,0007.32
2024-02-03 01:58:00,SystemResetWarning,0814.3,5.00,000.00,025.3,024.5,000.0,033.7,027.1,13.3,0002.1,0008.55,0024.48,0007.31
2024-02-03 01:59:00,SystemResetWarning,0814.3,5.00,000.00,025.3,024.5,000.0,033.7,027.0,13.1,0002.4,0008.52,0025.07,0007.29
